DW7355 Watertown MA US current weather conditions

sailwx.info

Wind from 113

Air temperature 19.4° C
Dewpoint 16.7° C

Last reported at 2020-Aug-08 06:00 UTC.
Time now 2020-Aug-08 06:35 UTC

Location: N 42°22' W 071°09'.
View on Google Maps.

See reports from other nearby stations

  
Tides and Currents Weather Stations Pressure Air Temp Water Temp Dewpoint Dewpoint Depression Visibility Wind Speed Wind Dir Waves Ship Positions
date/time (UTC)wind fromknots sea level pressurealtimeterstation pressurevisibilityair tempwater tempwave heightnotes
2020-Aug-08 06:00 113 19.4
2020-Aug-08 05:45 113 19.4
2020-Aug-08 05:30 113 19.4
2020-Aug-08 05:15 113 19.4
2020-Aug-08 05:00 113 19.4
2020-Aug-08 04:45 113 19.4
2020-Aug-08 04:33 113 19.4
2020-Aug-08 04:16 113 20.0
2020-Aug-08 04:01 113 20.0
2020-Aug-08 03:47 113 20.0
2020-Aug-08 03:31 113 20.0
2020-Aug-08 03:17 153 20.0
2020-Aug-08 03:02 170 20.0
2020-Aug-08 02:47 170 20.6
2020-Aug-08 02:31 170 20.6
2020-Aug-08 02:16 170 21.1
2020-Aug-08 02:02 170 21.1
2020-Aug-08 01:48 184 21.1
2020-Aug-08 01:31 170 21.7
2020-Aug-08 01:16 236 21.7
2020-Aug-08 01:01 172 21.7
2020-Aug-08 00:46 115 21.7
2020-Aug-08 00:31 091 0 gusting 3 21.7
2020-Aug-08 00:15 163 21.7
2020-Aug-08 00:01 197 22.2
2020-Aug-07 23:47 170 22.2
2020-Aug-07 23:32 075 22.2
2020-Aug-07 23:16 326 0 gusting 3 22.8
2020-Aug-07 23:03 159 23.3
2020-Aug-07 22:47 032 0 gusting 3 23.3
2020-Aug-07 22:31 360 23.3
2020-Aug-07 22:16 331 23.9
2020-Aug-07 22:01 103 23.9
2020-Aug-07 21:46 130 23.9
2020-Aug-07 21:31 104 0 gusting 2 24.4
2020-Aug-07 21:16 135 24.4
2020-Aug-07 21:01 153 24.4
2020-Aug-07 20:46 096 1 gusting 3 24.4
2020-Aug-07 20:31 349 23.9
2020-Aug-07 20:16 121 23.9
2020-Aug-07 20:00 075 24.4
2020-Aug-07 19:46 114 0 gusting 4 24.4
2020-Aug-07 19:31 016 24.4
2020-Aug-07 19:16 015 0 gusting 4 23.9
2020-Aug-07 19:00 140 23.9
2020-Aug-07 18:46 160 0 gusting 3 24.4
2020-Aug-07 18:31 153 1 gusting 5 24.4
2020-Aug-07 18:16 145 25.0
2020-Aug-07 18:01 100 1 gusting 4 25.6
2020-Aug-07 17:45 335 26.1
2020-Aug-07 17:31 089 1 gusting 4 26.1
2020-Aug-07 17:16 165 1 gusting 6 26.1
2020-Aug-07 17:00 171 1 26.1
2020-Aug-07 16:45 222 1 gusting 4 27.2
2020-Aug-07 16:30 032 0 gusting 3 27.8
2020-Aug-07 16:15 116 0 gusting 5 27.8
2020-Aug-07 16:01 205 0 gusting 7 27.8
2020-Aug-07 15:45 122 27.2
2020-Aug-07 15:30 094 0 gusting 2 26.1
2020-Aug-07 15:15 297 26.1
2020-Aug-07 15:00 110 25.6
2020-Aug-07 14:45 316 24.4
2020-Aug-07 14:30 290 24.4
2020-Aug-07 14:15 289 23.3
2020-Aug-07 14:00 283 23.3
2020-Aug-07 13:45 352 23.3
2020-Aug-07 13:30 026 23.3
2020-Aug-07 13:15 283 23.3
2020-Aug-07 13:03 293 22.8
2020-Aug-07 12:45 335 22.2
2020-Aug-07 12:31 335 21.7
2020-Aug-07 12:16 062 21.7
2020-Aug-07 12:01 063 21.7
2020-Aug-07 11:46 105 21.1
2020-Aug-07 11:32 203 20.6
2020-Aug-07 11:15 203 20.0
2020-Aug-07 11:01 203 20.0
2020-Aug-07 10:45 203 19.4
2020-Aug-07 10:30 044 19.4
2020-Aug-07 10:16 044 18.9
2020-Aug-07 10:01 283 18.3
2020-Aug-07 09:45 284 18.3
2020-Aug-07 09:31 283 18.3
2020-Aug-07 09:16 284 18.3
2020-Aug-07 09:00 283 18.3
2020-Aug-07 08:45 284 18.3
2020-Aug-07 08:30 283 18.3
2020-Aug-07 08:16 284 18.9
2020-Aug-07 08:00 284 18.9
2020-Aug-07 07:45 284 18.9
2020-Aug-07 07:31 284 18.3
2020-Aug-07 07:15 284 18.3
2020-Aug-07 07:00 284 18.3
2020-Aug-07 06:46 283 18.3
2020-Aug-07 06:30 284 18.9
2020-Aug-07 06:15 284 18.9
2020-Aug-07 06:01 284 18.9
2020-Aug-07 05:45 283 19.4
2020-Aug-07 05:30 284 19.4
2020-Aug-07 05:16 284 19.4
2020-Aug-07 05:00 283 20.0
2020-Aug-07 04:45 284 20.0
2020-Aug-07 04:30 284 20.6
2020-Aug-07 04:15 284 21.1
2020-Aug-07 04:00 283 21.1
2020-Aug-07 03:45 283 21.7
2020-Aug-07 03:30 284 21.7
2020-Aug-07 03:15 283 21.7
2020-Aug-07 03:01 284 21.7
2020-Aug-07 02:46 283 22.2
2020-Aug-07 02:32 284 22.8
2020-Aug-07 02:16 284 23.9
2020-Aug-07 02:01 284 23.9
2020-Aug-07 01:46 280 24.4
2020-Aug-07 01:31 125 24.4
2020-Aug-07 01:17 204 24.4
2020-Aug-07 01:03 108 23.9
2020-Aug-07 00:46 347 25.0
2020-Aug-07 00:32 357 25.6
2020-Aug-07 00:18 356 25.6
2020-Aug-07 00:02 356 26.1
2020-Aug-06 23:47 287 26.7
2020-Aug-06 23:31 257 26.7
2020-Aug-06 23:17 351 27.2
2020-Aug-06 23:01 259 0 gusting 3 27.8
2020-Aug-06 22:46 226 27.8
2020-Aug-06 22:32 229 0 gusting 4 27.8
2020-Aug-06 22:16 250 1 gusting 3 28.3
2020-Aug-06 22:01 300 0 gusting 4 28.9
2020-Aug-06 21:46 276 0 gusting 6 28.9
2020-Aug-06 21:32 290 0 gusting 3 29.4
2020-Aug-06 21:16 284 0 gusting 7 28.3
2020-Aug-06 21:01 269 1 gusting 6 28.9
2020-Aug-06 20:46 277 1 gusting 6 28.9
2020-Aug-06 20:31 207 1 gusting 5 28.3
2020-Aug-06 20:16 204 1 gusting 7 28.9
2020-Aug-06 20:01 270 0 gusting 3 28.9
2020-Aug-06 19:46 259 0 gusting 6 28.3
2020-Aug-06 19:31 273 2 gusting 6 28.3
2020-Aug-06 19:16 219 1 gusting 6 28.3
2020-Aug-06 19:01 001 1 gusting 6 28.3
2020-Aug-06 18:45 284 1 gusting 5 28.3
2020-Aug-06 18:31 255 2 gusting 5 28.3
2020-Aug-06 18:16 297 0 gusting 5 28.3
2020-Aug-06 18:02 353 0 gusting 3 28.3
2020-Aug-06 17:46 286 2 gusting 6 28.3
2020-Aug-06 17:31 274 1 gusting 5 28.3
2020-Aug-06 17:15 262 1 gusting 6 28.3
2020-Aug-06 17:01 302 1 gusting 6 28.3
2020-Aug-06 16:46 020 1 gusting 4 28.3
2020-Aug-06 16:30 257 1 gusting 5 27.8
2020-Aug-06 16:16 194 0 gusting 6 27.8
2020-Aug-06 16:00 281 0 gusting 4 27.8
2020-Aug-06 15:46 270 0 gusting 3 27.8
2020-Aug-06 15:30 233 0 gusting 3 27.2
2020-Aug-06 15:15 274 1 gusting 3 26.7
2020-Aug-06 15:02 233 26.1
2020-Aug-06 14:45 044 0 gusting 4 26.1
2020-Aug-06 14:30 307 0 gusting 3 26.1
2020-Aug-06 14:16 270 0 gusting 3 25.6
2020-Aug-06 14:00 309 25.6
2020-Aug-06 13:45 264 0 gusting 3 25.6
2020-Aug-06 13:30 056 0 gusting 2 25.6
2020-Aug-06 13:15 237 0 gusting 4 25.0
2020-Aug-06 13:00 037 24.4
2020-Aug-06 12:45 319 0 gusting 2 24.4
2020-Aug-06 12:16 040 0 gusting 3 23.3
2020-Aug-06 12:01 033 22.8
2020-Aug-06 11:46 350 22.2
2020-Aug-06 11:31 235 21.1
2020-Aug-06 11:17 278 20.0
2020-Aug-06 11:02 118 18.3
2020-Aug-06 10:46 133 17.8
2020-Aug-06 10:31 147 17.8
2020-Aug-06 10:16 152 17.8
2020-Aug-06 10:01 152 17.8
2020-Aug-06 09:47 130 17.8
2020-Aug-06 09:30 162 17.8
2020-Aug-06 09:16 162 17.8
2020-Aug-06 09:00 162 18.3
2020-Aug-06 08:46 162 18.3
2020-Aug-06 08:31 162 18.3
2020-Aug-06 08:16 278 18.3
2020-Aug-06 08:01 278 18.3
2020-Aug-06 07:45 278 18.9
2020-Aug-06 07:31 278 18.9
2020-Aug-06 07:15 278 18.9
2020-Aug-06 07:00 278 19.4
2020-Aug-06 06:45 278 19.4
2020-Aug-06 06:30 278 20.0
2020-Aug-06 06:15 278 20.0
2020-Aug-06 06:01 278 20.6